Location: Beaurevoir
(49.9971°N, 3.3085°E)
Time: 11:50:32
(UTC+00:00)

Cosmos 2360 Rocket - Pass Details

Date: 23 May 2024
Orbit: 832 x 846 km, 71.0° (Epoch: 14 June)

Event Time Altitude Azimuth Distance (km) Brightness Sun altitude
Rises 01:56:46 0° 330° (NNW) 3,417 5.8 -13.4°
Reaches altitude 10° 01:59:13 10° 331° (NNW) 2,478 5.0 -13.2°
Maximum altitude 02:04:56 89° 58° (ENE) 854 2.2 -12.7°
Drops below altitude 10° 02:10:37 10° 152° (SSE) 2,462 4.4 -12.2°
Sets 02:13:03 0° 153° (SSE) 3,392 5.1 -12.0°
